Location: Grand Lay
(47.3253°N, 0.9468°E)
Time: 18:46:40
(UTC+00:00)

Gbstr 26 Del rocket - Pass Details

Date: 14 April 2026
Orbit: 490 x 1216 km, 51.8° (Epoch: 13 May)

Event Time Altitude Azimuth Distance (km) Brightness Sun altitude
Exits shadow 03:14:24 20° 300° (WNW) 1,198 4.3 -18.4°
Maximum altitude 03:16:36 41° 2° (N) 723 3.7 -18.1°
Drops below altitude 10° 03:20:11 10° 74° (ENE) 1,701 6.4 -17.6°
Sets 03:22:29 0° 82° (E) 2,624 7.4 -17.3°
